Location: B�hl
(48.6968°N, 8.1352°E)
Time: 05:43:04
(UTC+00:00)

Terra - Pass Details

Date: 08 March 2021
Orbit: 701 x 703 km, 98.2° (Epoch: 11 April)

Event Time Altitude Azimuth Distance (km) Brightness Sun altitude
Exits shadow 20:00:41 14° 26° (NNE) 1,891 4.0 -26.3°
Drops below altitude 10° 20:01:50 10° 15° (NNE) 2,183 4.5 -26.5°
Sets 20:04:38 0° 358° (N) 3,106 5.5 -26.9°
